| time (UTC) | temp C | wind direction | speed KPH | gust KPH | rain 1hr cm | rain 24hr cm | rain mn cm | humidity % | barometer mb |
| 20260506025832 | 16 | 321 | 0.0 | 0.0 | 0.00 | 0.00 | 0.00 | 61 | 1014.3 |
| 20260506025337 | 17 | 321 | 0.0 | 0.0 | 0.00 | 0.00 | 0.00 | 59 | 1014.3 |
| 20260506024843 | 17 | 321 | 0.0 | 0.0 | 0.00 | 0.00 | 0.00 | 57 | 1014.2 |
| 20260506024347 | 17 | 321 | 0.0 | 0.0 | 0.00 | 0.00 | 0.00 | 55 | 1014.1 |
| 20260506023833 | 18 | 321 | 0.0 | 0.0 | 0.00 | 0.00 | 0.00 | 52 | 1014.0 |
| 20260506023340 | 18 | 325 | 0.0 | 0.0 | 0.00 | 0.00 | 0.00 | 51 | 1014.0 |
| 20260506022844 | 18 | 325 | 0.0 | 0.0 | 0.00 | 0.00 | 0.00 | 48 | 1013.9 |
| 20260506022334 | 19 | 326 | 0.0 | 1.6 | 0.00 | 0.00 | 0.00 | 47 | 1013.9 |
| 20260506021839 | 20 | 326 | 0.0 | 4.8 | 0.00 | 0.00 | 0.00 | 45 | 1013.8 |
| 20260506021346 | 20 | 327 | 0.0 | 11.3 | 0.00 | 0.00 | 0.00 | 39 | 1013.8 |
| 20260506020832 | 20 | 328 | 1.6 | 11.3 | 0.00 | 0.00 | 0.00 | 36 | 1013.8 |
| 20260506020338 | 20 | 306 | 0.0 | 8.0 | 0.00 | 0.00 | 0.00 | 36 | 1013.7 |
| 20260506015843 | 20 | 293 | 0.0 | 6.4 | 0.00 | 0.00 | 0.00 | 36 | 1013.7 |
| 20260506015350 | 20 | 302 | 4.8 | 6.4 | 0.00 | 0.00 | 0.00 | 35 | 1013.5 |
| 20260506014855 | 20 | 329 | 0.0 | 19.3 | 0.00 | 0.00 | 0.00 | 35 | 1013.6 |
| 20260506014338 | 20 | 319 | 0.0 | 19.3 | 0.00 | 0.00 | 0.00 | 35 | 1013.6 |
| 20260506013845 | 20 | 335 | 0.0 | 11.3 | 0.00 | 0.00 | 0.00 | 36 | 1013.6 |
| 20260506013349 | 20 | 355 | 6.4 | 14.5 | 0.00 | 0.00 | 0.00 | 35 | 1013.5 |
| 20260506012835 | 20 | 58 | 6.4 | 16.1 | 0.00 | 0.00 | 0.00 | 35 | 1013.5 |
| 20260506012340 | 20 | 328 | 1.6 | 16.1 | 0.00 | 0.00 | 0.00 | 35 | 1013.5 |
| 20260506011847 | 20 | 355 | 3.2 | 11.3 | 0.00 | 0.00 | 0.00 | 35 | 1013.5 |
| 20260506011333 | 20 | 324 | 6.4 | 11.3 | 0.00 | 0.00 | 0.00 | 36 | 1013.5 |
| 20260506010837 | 20 | 346 | 0.0 | 0.0 | 0.00 | 0.00 | 0.00 | 38 | 1012.7 |
| 20260506010342 | 20 | 346 | 0.0 | 11.3 | 0.00 | 0.00 | 0.00 | 37 | 1012.7 |
| 20260506005849 | 20 | 346 | 6.4 | 17.7 | 0.00 | 0.00 | 0.00 | 36 | 1012.8 |
| 20260506005355 | 21 | 341 | 11.3 | 17.7 | 0.00 | 0.00 | 0.00 | 36 | 1012.9 |
| 20260506004835 | 21 | 338 | 9.7 | 14.5 | 0.00 | 0.00 | 0.00 | 36 | 1012.8 |
| 20260506004340 | 21 | 24 | 6.4 | 14.5 | 0.00 | 0.00 | 0.00 | 35 | 1012.6 |
| 20260506003846 | 21 | 290 | 0.0 | 8.0 | 0.00 | 0.00 | 0.00 | 34 | 1012.7 |
| 20260506003332 | 20 | 271 | 0.0 | 14.5 | 0.00 | 0.00 | 0.00 | 35 | 1012.8 |
| 20260506002837 | 20 | 344 | 3.2 | 16.1 | 0.00 | 0.00 | 0.00 | 34 | 1012.9 |
| 20260506002343 | 21 | 342 | 4.8 | 19.3 | 0.00 | 0.00 | 0.00 | 34 | 1012.8 |
| 20260506001847 | 21 | 5 | 16.1 | 19.3 | 0.00 | 0.00 | 0.00 | 35 | 1012.8 |
| 20260506001334 | 21 | 5 | 0.0 | 19.3 | 0.00 | 0.00 | 0.00 | 35 | 1012.7 |
| 20260506000840 | 21 | 15 | 1.6 | 19.3 | 0.00 | 0.00 | 0.00 | 34 | 1012.8 |
| 20260506000346 | 21 | 294 | 0.0 | 16.1 | 0.00 | 0.00 | 0.00 | 33 | 1012.8 |
| 20260505235849 | 21 | 314 | 0.0 | 16.1 | 0.00 | 0.00 | 0.00 | 34 | 1012.7 |
| 20260505235334 | 21 | 15 | 8.0 | 17.7 | 0.00 | 0.00 | 0.00 | 34 | 1012.7 |
| 20260505234838 | 21 | 338 | 0.0 | 17.7 | 0.00 | 0.00 | 0.00 | 35 | 1012.7 |
| 20260505234344 | 21 | 346 | 8.0 | 20.9 | 0.00 | 0.00 | 0.00 | 37 | 1012.7 |
| 20260505233832 | 21 | 336 | 3.2 | 20.9 | 0.00 | 0.00 | 0.00 | 36 | 1012.8 |
| 20260505233337 | 21 | 333 | 9.7 | 16.1 | 0.00 | 0.00 | 0.00 | 35 | 1012.8 |
| 20260505232842 | 21 | 59 | 9.7 | 16.1 | 0.00 | 0.00 | 0.00 | 35 | 1012.8 |
| 20260505232349 | 20 | 339 | 0.0 | 14.5 | 0.00 | 0.00 | 0.00 | 34 | 1012.8 |
| 20260505231835 | 21 | 338 | 4.8 | 14.5 | 0.00 | 0.00 | 0.00 | 34 | 1012.8 |
| 20260505231338 | 21 | 281 | 0.0 | 11.3 | 0.00 | 0.00 | 0.00 | 37 | 1012.8 |
| 20260505230843 | 21 | 275 | 4.8 | 11.3 | 0.00 | 0.00 | 0.00 | 36 | 1012.8 |
| 20260505230348 | 20 | 10 | 0.0 | 9.7 | 0.00 | 0.00 | 0.00 | 36 | 1012.8 |
| 20260505225832 | 20 | 263 | 3.2 | 9.7 | 0.00 | 0.00 | 0.00 | 36 | 1013.0 |
| 20260505225336 | 20 | 331 | 0.0 | 11.3 | 0.00 | 0.00 | 0.00 | 38 | 1013.2 |
| 20260505224841 | 20 | 346 | 3.2 | 22.5 | 0.00 | 0.00 | 0.00 | 38 | 1013.4 |
| 20260505224348 | 20 | 280 | 4.8 | 22.5 | 0.00 | 0.00 | 0.00 | 37 | 1013.4 |
| 20260505223833 | 20 | 276 | 3.2 | 9.7 | 0.00 | 0.00 | 0.00 | 37 | 1013.3 |
| 20260505223338 | 20 | 5 | 0.0 | 11.3 | 0.00 | 0.00 | 0.00 | 36 | 1013.2 |
| 20260505222842 | 20 | 23 | 3.2 | 17.7 | 0.00 | 0.00 | 0.00 | 36 | 1013.3 |
| 20260505222346 | 20 | 237 | 3.2 | 17.7 | 0.00 | 0.00 | 0.00 | 38 | 1013.3 |
| 20260505221835 | 20 | 57 | 8.0 | 16.1 | 0.00 | 0.00 | 0.00 | 39 | 1013.5 |
| 20260505221340 | 20 | 355 | 0.0 | 16.1 | 0.00 | 0.00 | 0.00 | 38 | 1013.5 |
| 20260505220846 | 20 | 22 | 8.0 | 16.1 | 0.00 | 0.00 | 0.00 | 39 | 1013.7 |
| 20260505220349 | 19 | 348 | 0.0 | 16.1 | 0.00 | 0.00 | 0.00 | 37 | 1013.6 |
| 20260505215834 | 20 | 310 | 0.0 | 16.1 | 0.00 | 0.00 | 0.00 | 39 | 1013.7 |
| 20260505215339 | 20 | 333 | 0.0 | 11.3 | 0.00 | 0.00 | 0.00 | 37 | 1013.6 |
| 20260505214845 | 20 | 349 | 6.4 | 19.3 | 0.00 | 0.00 | 0.00 | 38 | 1013.7 |
| 20260505214350 | 20 | 322 | 0.0 | 19.3 | 0.00 | 0.00 | 0.00 | 37 | 1013.6 |
| 20260505213833 | 20 | 315 | 6.4 | 16.1 | 0.00 | 0.00 | 0.00 | 37 | 1013.7 |
| 20260505213341 | 20 | 343 | 4.8 | 16.1 | 0.00 | 0.00 | 0.00 | 36 | 1013.7 |
| 20260505212848 | 20 | 344 | 8.0 | 16.1 | 0.00 | 0.00 | 0.00 | 37 | 1013.8 |
| 20260505212331 | 20 | 5 | 3.2 | 9.7 | 0.00 | 0.00 | 0.00 | 39 | 1013.7 |
| 20260505211835 | 20 | 344 | 0.0 | 22.5 | 0.00 | 0.00 | 0.00 | 43 | 1013.6 |
| 20260505211340 | 20 | 306 | 6.4 | 22.5 | 0.00 | 0.00 | 0.00 | 40 | 1013.7 |
| 20260505210844 | 19 | 253 | 0.0 | 6.4 | 0.00 | 0.00 | 0.00 | 39 | 1013.5 |
| 20260505210349 | 18 | 252 | 3.2 | 6.4 | 0.00 | 0.00 | 0.00 | 44 | 1013.7 |
| 20260505205834 | 18 | 252 | 0.0 | 4.8 | 0.00 | 0.00 | 0.00 | 46 | 1013.8 |
| 20260505205339 | 18 | 252 | 0.0 | 9.7 | 0.00 | 0.00 | 0.00 | 45 | 1013.9 |
| 20260505204843 | 18 | 252 | 3.2 | 9.7 | 0.00 | 0.00 | 0.00 | 45 | 1013.7 |
| 20260505204347 | 18 | 216 | 0.0 | 0.0 | 0.00 | 0.00 | 0.00 | 43 | 1013.7 |
| 20260505203833 | 19 | 217 | 0.0 | 1.6 | 0.00 | 0.00 | 0.00 | 42 | 1013.8 |
| 20260505203339 | 18 | 216 | 0.0 | 1.6 | 0.00 | 0.00 | 0.00 | 45 | 1013.7 |
| 20260505202845 | 18 | 217 | 0.0 | 1.6 | 0.00 | 0.00 | 0.00 | 44 | 1013.7 |
| 20260505202351 | 18 | 217 | 0.0 | 4.8 | 0.00 | 0.00 | 0.00 | 46 | 1013.7 |
| 20260505201837 | 18 | 216 | 0.0 | 4.8 | 0.00 | 0.00 | 0.00 | 44 | 1013.6 |
| 20260505201341 | 18 | 216 | 0.0 | 9.7 | 0.00 | 0.00 | 0.00 | 47 | 1013.6 |
| 20260505200847 | 18 | 216 | 1.6 | 9.7 | 0.00 | 0.00 | 0.00 | 46 | 1013.0 |
| 20260505200333 | 18 | 215 | 6.4 | 8.0 | 0.00 | 0.00 | 0.00 | 48 | 1013.0 |
| 20260505195838 | 18 | 279 | 6.4 | 8.0 | 0.00 | 0.00 | 0.00 | 50 | 1013.0 |
| 20260505195341 | 18 | 304 | 0.0 | 9.7 | 0.00 | 0.00 | 0.00 | 45 | 1013.1 |
| 20260505194845 | 18 | 304 | 3.2 | 9.7 | 0.00 | 0.00 | 0.00 | 48 | 1013.1 |
| 20260505194347 | 18 | 231 | 0.0 | 4.8 | 0.00 | 0.00 | 0.00 | 44 | 1013.1 |
| 20260505193833 | 18 | 231 | 0.0 | 4.8 | 0.00 | 0.00 | 0.00 | 47 | 1013.3 |
| 20260505193339 | 18 | 231 | 0.0 | 0.0 | 0.00 | 0.00 | 0.00 | 48 | 1013.3 |
| 20260505192845 | 18 | 231 | 0.0 | 4.8 | 0.00 | 0.00 | 0.00 | 49 | 1013.3 |
| 20260505192350 | 18 | 231 | 4.8 | 4.8 | 0.00 | 0.00 | 0.00 | 48 | 1013.3 |
| 20260505191835 | 18 | 231 | 0.0 | 11.3 | 0.00 | 0.00 | 0.00 | 47 | 1013.3 |
| 20260505191340 | 17 | 231 | 1.6 | 11.3 | 0.00 | 0.00 | 0.00 | 46 | 1013.3 |
| 20260505190844 | 17 | 205 | 6.4 | 6.4 | 0.00 | 0.00 | 0.00 | 49 | 1013.4 |
| 20260505190349 | 17 | 247 | 3.2 | 6.4 | 0.00 | 0.00 | 0.00 | 51 | 1013.4 |
| 20260505185833 | 17 | 217 | 3.2 | 9.7 | 0.00 | 0.00 | 0.00 | 52 | 1013.4 |
| 20260505185339 | 17 | 211 | 1.6 | 9.7 | 0.00 | 0.00 | 0.00 | 52 | 1013.3 |
| 20260505184845 | 17 | 219 | 4.8 | 8.0 | 0.00 | 0.00 | 0.00 | 51 | 1013.3 |
| 20260505184331 | 17 | 255 | 4.8 | 6.4 | 0.00 | 0.00 | 0.00 | 52 | 1013.3 |
| 20260505183836 | 17 | 216 | 0.0 | 9.7 | 0.00 | 0.00 | 0.00 | 54 | 1013.3 |
| 20260505183341 | 17 | 215 | 1.6 | 9.7 | 0.00 | 0.00 | 0.00 | 54 | 1013.3 |
| 20260505182847 | 17 | 230 | 1.6 | 8.0 | 0.00 | 0.00 | 0.00 | 54 | 1013.4 |
| 20260505182331 | 16 | 232 | 0.0 | 8.0 | 0.00 | 0.00 | 0.00 | 53 | 1013.5 |
| 20260505181836 | 16 | 241 | 0.0 | 6.4 | 0.00 | 0.00 | 0.00 | 53 | 1013.5 |
| 20260505181339 | 16 | 226 | 0.0 | 6.4 | 0.00 | 0.00 | 0.00 | 55 | 1013.5 |
| 20260505180847 | 16 | 232 | 0.0 | 6.4 | 0.00 | 0.00 | 0.00 | 55 | 1013.4 |
| 20260505180333 | 16 | 221 | 1.6 | 6.4 | 0.00 | 0.00 | 0.00 | 56 | 1013.4 |
| 20260505175837 | 16 | 217 | 4.8 | 9.7 | 0.00 | 0.00 | 0.00 | 58 | 1013.6 |
| 20260505175341 | 16 | 207 | 3.2 | 9.7 | 0.00 | 0.00 | 0.00 | 56 | 1013.6 |
| 20260505174848 | 15 | 275 | 1.6 | 9.7 | 0.00 | 0.00 | 0.00 | 57 | 1013.6 |
| 20260505174334 | 15 | 283 | 4.8 | 6.4 | 0.00 | 0.00 | 0.00 | 60 | 1013.7 |
| 20260505173839 | 15 | 221 | 3.2 | 6.4 | 0.00 | 0.00 | 0.00 | 59 | 1013.6 |
| 20260505173340 | 15 | 220 | 0.0 | 9.7 | 0.00 | 0.00 | 0.00 | 59 | 1013.6 |
| 20260505172845 | 15 | 213 | 0.0 | 9.7 | 0.00 | 0.00 | 0.00 | 61 | 1013.6 |
| 20260505172331 | 15 | 265 | 0.0 | 12.9 | 0.00 | 0.00 | 0.00 | 55 | 1013.8 |
| 20260505171836 | 15 | 350 | 0.0 | 12.9 | 0.00 | 0.00 | 0.00 | 55 | 1013.7 |
| 20260505171341 | 14 | 360 | 6.4 | 12.9 | 0.00 | 0.00 | 0.00 | 57 | 1013.9 |
| 20260505170848 | 14 | 332 | 4.8 | 16.1 | 0.00 | 0.00 | 0.00 | 56 | 1013.9 |
| 20260505170335 | 13 | 26 | 11.3 | 17.7 | 0.00 | 0.00 | 0.00 | 57 | 1014.0 |
| 20260505165841 | 13 | 355 | 0.0 | 17.7 | 0.00 | 0.00 | 0.00 | 58 | 1013.9 |
| 20260505165345 | 13 | 355 | 1.6 | 14.5 | 0.00 | 0.00 | 0.00 | 59 | 1013.9 |
| 20260505164850 | 13 | 321 | 1.6 | 6.4 | 0.00 | 0.00 | 0.00 | 61 | 1013.9 |
| 20260505164334 | 13 | 322 | 3.2 | 9.7 | 0.00 | 0.00 | 0.00 | 62 | 1013.8 |
| 20260505163839 | 12 | 39 | 6.4 | 9.7 | 0.00 | 0.00 | 0.00 | 63 | 1013.7 |
| 20260505163344 | 12 | 288 | 3.2 | 9.7 | 0.00 | 0.00 | 0.00 | 68 | 1013.8 |
| 20260505162848 | 11 | 252 | 0.0 | 6.4 | 0.00 | 0.00 | 0.00 | 72 | 1013.7 |
| 20260505162332 | 11 | 252 | 0.0 | 6.4 | 0.00 | 0.00 | 0.00 | 72 | 1013.7 |
| 20260505161834 | 11 | 257 | 0.0 | 6.4 | 0.00 | 0.00 | 0.00 | 73 | 1013.7 |
| 20260505161339 | 11 | 257 | 0.0 | 4.8 | 0.00 | 0.00 | 0.00 | 73 | 1013.9 |
| 20260505160844 | 10 | 257 | 0.0 | 4.8 | 0.00 | 0.00 | 0.00 | 75 | 1013.8 |
| 20260505160350 | 10 | 257 | 3.2 | 4.8 | 0.00 | 0.00 | 0.00 | 77 | 1013.8 |
| 20260505153334 | 8 | 257 | 0.0 | 4.8 | 0.00 | 0.00 | 0.00 | 84 | 1013.9 |
| 20260505152839 | 8 | 257 | 0.0 | 0.0 | 0.00 | 0.00 | 0.00 | 87 | 1013.8 |
| 20260505152344 | 7 | 257 | 0.0 | 0.0 | 0.00 | 0.00 | 0.00 | 88 | 1013.8 |
| 20260505151849 | 7 | 257 | 0.0 | 0.0 | 0.00 | 0.00 | 0.00 | 88 | 1013.8 |
| 20260505151351 | 7 | 257 | 0.0 | 0.0 | 0.00 | 0.00 | 0.00 | 88 | 1013.9 |
| 20260505150834 | 7 | 257 | 0.0 | 0.0 | 0.00 | 0.00 | 0.00 | 88 | 1013.7 |
| 20260505150338 | 7 | 257 | 0.0 | 0.0 | 0.00 | 0.00 | 0.00 | 88 | 1013.7 |
| 20260505140353 | 6 | 257 | 0.0 | 0.0 | 0.00 | 0.00 | 0.00 | 89 | 1013.6 |
| 20260505124832 | 6 | 257 | 0.0 | 0.0 | 0.00 | 0.00 | 0.00 | 88 | 1012.9 |
| 20260505124338 | 6 | 257 | 0.0 | 0.0 | 0.00 | 0.00 | 0.00 | 88 | 1012.9 |
| 20260505123844 | 6 | 257 | 0.0 | 0.0 | 0.00 | 0.00 | 0.00 | 88 | 1012.8 |
| 20260505123350 | 6 | 257 | 0.0 | 0.0 | 0.00 | 0.00 | 0.00 | 88 | 1012.6 |
| 20260505122836 | 6 | 257 | 0.0 | 0.0 | 0.00 | 0.00 | 0.00 | 88 | 1012.7 |
| 20260505122343 | 6 | 257 | 0.0 | 0.0 | 0.00 | 0.00 | 0.00 | 88 | 1012.6 |
| 20260505121848 | 6 | 257 | 0.0 | 8.0 | 0.00 | 0.00 | 0.00 | 88 | 1012.7 |
| 20260505121333 | 6 | 257 | 3.2 | 8.0 | 0.00 | 0.00 | 0.00 | 88 | 1012.7 |
| 20260505120838 | 6 | 257 | 0.0 | 0.0 | 0.00 | 0.00 | 0.00 | 88 | 1012.7 |
| 20260505120343 | 6 | 257 | 0.0 | 0.0 | 0.00 | 0.00 | 0.00 | 88 | 1012.8 |
| 20260505115848 | 6 | 257 | 0.0 | 0.0 | 0.00 | 0.00 | 0.00 | 88 | 1012.7 |
| 20260505115334 | 6 | 257 | 0.0 | 0.0 | 0.00 | 0.00 | 0.00 | 88 | 1012.8 |
| 20260505114837 | 6 | 257 | 0.0 | 0.0 | 0.00 | 0.00 | 0.00 | 88 | 1012.8 |
| 20260505114339 | 7 | 257 | 0.0 | 4.8 | 0.00 | 0.00 | 0.00 | 88 | 1012.8 |
| 20260505113844 | 7 | 257 | 0.0 | 6.4 | 0.00 | 0.00 | 0.00 | 88 | 1012.9 |
| 20260505113350 | 7 | 257 | 0.0 | 6.4 | 0.00 | 0.00 | 0.00 | 88 | 1012.8 |
| 20260505112835 | 7 | 257 | 0.0 | 8.0 | 0.00 | 0.00 | 0.00 | 88 | 1012.9 |
| 20260505112342 | 7 | 257 | 3.2 | 8.0 | 0.00 | 0.00 | 0.00 | 88 | 1012.9 |
| 20260505111845 | 7 | 198 | 0.0 | 4.8 | 0.00 | 0.00 | 0.00 | 88 | 1012.9 |
| 20260505111352 | 7 | 198 | 0.0 | 4.8 | 0.00 | 0.00 | 0.00 | 87 | 1013.0 |
| 20260505110833 | 7 | 198 | 0.0 | 0.0 | 0.00 | 0.00 | 0.00 | 87 | 1013.0 |
| 20260505110337 | 7 | 198 | 0.0 | 3.2 | 0.00 | 0.00 | 0.00 | 87 | 1012.9 |
| 20260505101841 | 7 | 198 | 0.0 | 0.0 | 0.00 | 0.00 | 0.00 | 87 | 1012.9 |
| 20260505101345 | 7 | 198 | 0.0 | 0.0 | 0.00 | 0.00 | 0.00 | 87 | 1012.9 |
| 20260505100849 | 7 | 198 | 0.0 | 0.0 | 0.00 | 0.00 | 0.00 | 87 | 1013.0 |
| 20260505100335 | 7 | 198 | 0.0 | 0.0 | 0.00 | 0.00 | 0.00 | 87 | 1013.0 |
| 20260505095840 | 7 | 198 | 0.0 | 0.0 | 0.00 | 0.00 | 0.00 | 87 | 1013.0 |
| 20260505095346 | 7 | 198 | 0.0 | 0.0 | 0.00 | 0.00 | 0.00 | 87 | 1013.1 |
| 20260505094832 | 7 | 198 | 0.0 | 0.0 | 0.00 | 0.00 | 0.00 | 87 | 1013.1 |
| 20260505094336 | 7 | 198 | 0.0 | 0.0 | 0.00 | 0.00 | 0.00 | 87 | 1013.1 |
| 20260505093840 | 7 | 198 | 0.0 | 0.0 | 0.00 | 0.00 | 0.00 | 87 | 1013.0 |
| 20260505093347 | 7 | 198 | 0.0 | 0.0 | 0.00 | 0.00 | 0.00 | 87 | 1012.9 |
| 20260505092832 | 7 | 198 | 0.0 | 0.0 | 0.00 | 0.00 | 0.00 | 87 | 1013.0 |
| 20260505092338 | 7 | 198 | 0.0 | 0.0 | 0.00 | 0.00 | 0.00 | 87 | 1013.0 |
| 20260505091843 | 7 | 198 | 0.0 | 0.0 | 0.00 | 0.00 | 0.00 | 87 | 1013.0 |
| 20260505091332 | 7 | 198 | 0.0 | 0.0 | 0.00 | 0.00 | 0.00 | 87 | 1013.1 |
| 20260505090837 | 7 | 198 | 0.0 | 0.0 | 0.00 | 0.00 | 0.00 | 87 | 1013.1 |
| 20260505090342 | 7 | 198 | 0.0 | 1.6 | 0.00 | 0.00 | 0.00 | 87 | 1013.0 |
| 20260505085846 | 7 | 198 | 0.0 | 1.6 | 0.00 | 0.00 | 0.00 | 87 | 1013.2 |
| 20260505085332 | 7 | 198 | 0.0 | 0.0 | 0.00 | 0.00 | 0.00 | 87 | 1013.2 |
| 20260505084836 | 7 | 198 | 0.0 | 0.0 | 0.00 | 0.00 | 0.00 | 87 | 1013.2 |
| 20260505084340 | 7 | 198 | 0.0 | 0.0 | 0.00 | 0.00 | 0.00 | 87 | 1013.2 |
| 20260505083848 | 7 | 198 | 0.0 | 0.0 | 0.00 | 0.00 | 0.00 | 87 | 1013.2 |
| 20260505083334 | 7 | 198 | 0.0 | 0.0 | 0.00 | 0.00 | 0.00 | 87 | 1013.1 |
| 20260505082840 | 7 | 198 | 0.0 | 0.0 | 0.00 | 0.00 | 0.00 | 87 | 1013.2 |
| 20260505082346 | 7 | 198 | 0.0 | 0.0 | 0.00 | 0.00 | 0.00 | 87 | 1013.2 |
| 20260505081832 | 7 | 198 | 0.0 | 0.0 | 0.00 | 0.00 | 0.00 | 86 | 1013.2 |
| 20260505081336 | 7 | 198 | 0.0 | 0.0 | 0.00 | 0.00 | 0.00 | 86 | 1013.2 |
| 20260505080841 | 7 | 198 | 0.0 | 0.0 | 0.00 | 0.00 | 0.00 | 86 | 1013.1 |
| 20260505080346 | 7 | 198 | 0.0 | 0.0 | 0.00 | 0.00 | 0.00 | 86 | 1013.1 |
| 20260505075834 | 7 | 198 | 0.0 | 0.0 | 0.00 | 0.00 | 0.00 | 86 | 1013.2 |
| 20260505075338 | 7 | 198 | 0.0 | 3.2 | 0.00 | 0.00 | 0.00 | 86 | 1013.2 |
| 20260505074844 | 7 | 198 | 0.0 | 3.2 | 0.00 | 0.00 | 0.00 | 86 | 1013.3 |
| 20260505074347 | 7 | 198 | 0.0 | 0.0 | 0.00 | 0.00 | 0.00 | 86 | 1013.5 |
| 20260505073833 | 7 | 198 | 0.0 | 6.4 | 0.00 | 0.00 | 0.00 | 85 | 1013.6 |
| 20260505073338 | 7 | 198 | 0.0 | 6.4 | 0.00 | 0.00 | 0.00 | 85 | 1013.3 |
| 20260505072842 | 7 | 197 | 0.0 | 4.8 | 0.00 | 0.00 | 0.00 | 85 | 1013.5 |
| 20260505072350 | 7 | 197 | 1.6 | 4.8 | 0.00 | 0.00 | 0.00 | 85 | 1013.6 |
| 20260505071834 | 7 | 197 | 0.0 | 4.8 | 0.00 | 0.00 | 0.00 | 85 | 1013.4 |
| 20260505071341 | 7 | 197 | 0.0 | 4.8 | 0.00 | 0.00 | 0.00 | 85 | 1013.6 |
| 20260505070842 | 7 | 194 | 0.0 | 6.4 | 0.00 | 0.00 | 0.00 | 85 | 1013.7 |
| 20260505070349 | 7 | 194 | 0.0 | 6.4 | 0.00 | 0.00 | 0.00 | 84 | 1013.7 |
| 20260505065846 | 7 | 194 | 0.0 | 6.4 | 0.00 | 0.00 | 0.00 | 84 | 1013.6 |
| 20260505065332 | 7 | 193 | 0.0 | 6.4 | 0.00 | 0.00 | 0.00 | 84 | 1013.6 |
| 20260505064838 | 7 | 193 | 0.0 | 4.8 | 0.00 | 0.00 | 0.00 | 84 | 1013.5 |
| 20260505064344 | 7 | 193 | 0.0 | 1.6 | 0.00 | 0.00 | 0.00 | 84 | 1013.5 |
| 20260505063849 | 7 | 193 | 0.0 | 4.8 | 0.00 | 0.00 | 0.00 | 84 | 1013.4 |
| 20260505063335 | 7 | 274 | 0.0 | 4.8 | 0.00 | 0.00 | 0.00 | 84 | 1013.5 |
| 20260505062838 | 7 | 274 | 0.0 | 0.0 | 0.00 | 0.00 | 0.00 | 84 | 1013.6 |
| 20260505062346 | 7 | 274 | 0.0 | 3.2 | 0.00 | 0.00 | 0.00 | 83 | 1013.7 |
| 20260505061832 | 7 | 274 | 0.0 | 3.2 | 0.00 | 0.00 | 0.00 | 83 | 1013.8 |
| 20260505061337 | 7 | 274 | 0.0 | 0.0 | 0.00 | 0.00 | 0.00 | 84 | 1013.9 |
| 20260505060841 | 7 | 274 | 0.0 | 0.0 | 0.00 | 0.00 | 0.00 | 84 | 1013.9 |
| 20260505060348 | 7 | 274 | 0.0 | 0.0 | 0.00 | 0.00 | 0.00 | 83 | 1014.0 |
| 20260505055834 | 7 | 274 | 0.0 | 0.0 | 0.00 | 0.00 | 0.00 | 83 | 1014.0 |
| 20260505055339 | 7 | 274 | 0.0 | 6.4 | 0.00 | 0.00 | 0.00 | 83 | 1014.0 |
| 20260505054843 | 7 | 274 | 0.0 | 8.0 | 0.00 | 0.00 | 0.00 | 83 | 1014.0 |
| 20260505054351 | 7 | 260 | 0.0 | 8.0 | 0.00 | 0.00 | 0.00 | 83 | 1013.9 |
| 20260505053833 | 7 | 220 | 1.6 | 1.6 | 0.00 | 0.00 | 0.00 | 83 | 1013.7 |
| 20260505053339 | 7 | 219 | 0.0 | 1.6 | 0.00 | 0.00 | 0.00 | 83 | 1013.6 |
| 20260505052845 | 7 | 215 | 0.0 | 1.6 | 0.00 | 0.00 | 0.00 | 83 | 1013.7 |
| 20260505052331 | 7 | 215 | 0.0 | 0.0 | 0.00 | 0.00 | 0.00 | 83 | 1013.8 |
| 20260505051836 | 7 | 215 | 0.0 | 3.2 | 0.00 | 0.00 | 0.00 | 83 | 1014.0 |
| 20260505051342 | 7 | 215 | 0.0 | 8.0 | 0.00 | 0.00 | 0.00 | 83 | 1014.1 |
| 20260505050845 | 7 | 221 | 3.2 | 8.0 | 0.00 | 0.00 | 0.00 | 83 | 1013.8 |
| 20260505050333 | 7 | 218 | 0.0 | 6.4 | 0.00 | 0.00 | 0.00 | 83 | 1013.5 |
| 20260505041344 | 7 | 279 | 3.2 | 6.4 | 0.00 | 0.00 | 0.00 | 83 | 1013.1 |
| 20260505040851 | 7 | 284 | 0.0 | 11.3 | 0.00 | 0.00 | 0.00 | 84 | 1013.1 |
| 20260505040336 | 7 | 283 | 6.4 | 11.3 | 0.00 | 0.00 | 0.00 | 84 | 1012.9 |
| 20260505035841 | 7 | 217 | 0.0 | 8.0 | 0.00 | 0.00 | 0.00 | 84 | 1012.8 |
| 20260505035345 | 7 | 201 | 1.6 | 6.4 | 0.00 | 0.00 | 0.00 | 84 | 1012.7 |
| 20260505034849 | 7 | 160 | 1.6 | 6.4 | 0.00 | 0.00 | 0.00 | 84 | 1012.7 |
| 20260505034334 | 8 | 213 | 0.0 | 9.7 | 0.00 | 0.00 | 0.00 | 84 | 1012.5 |
| 20260505033839 | 8 | 251 | 3.2 | 9.7 | 0.00 | 0.00 | 0.00 | 84 | 1012.7 |
| 20260505033343 | 8 | 220 | 1.6 | 8.0 | 0.00 | 0.00 | 0.00 | 84 | 1012.7 |
| 20260505032850 | 8 | 242 | 1.6 | 14.5 | 0.00 | 0.00 | 0.00 | 84 | 1012.5 |
| 20260505032336 | 8 | 196 | 11.3 | 14.5 | 0.00 | 0.00 | 0.00 | 83 | 1012.5 |
| 20260505031840 | 8 | 251 | 0.0 | 8.0 | 0.00 | 0.00 | 0.00 | 83 | 1012.4 |
| 20260505031343 | 8 | 234 | 0.0 | 8.0 | 0.00 | 0.00 | 0.00 | 83 | 1012.3 |
| 20260505030849 | 8 | 249 | 4.8 | 8.0 | 0.00 | 0.00 | 0.00 | 82 | 1012.3 |
| 20260505030333 | 8 | 237 | 4.8 | 9.7 | 0.00 | 0.00 | 0.00 | 82 | 1012.2 |